Date String (YYYY-MM-DD hh:mm:ss) UTC,Instrument flags,absolute air pressure of the measurement (hPa),sample flow rate (lpm),inlet stack bypass flow (lpm),air temperature of the measurement (°C),ambient temperature measured by the external sensor (°C),aerosol sample conditioner tube jacket temperature (°C),OPC LED temperature (°C),internal box temperature (°C),relative humidity of the measurement (%),span deviation,mass concentration of particles derived from Lorenz-Mie calculation of OPC scattering (μg/m³),mass concentration of particles derived from Lorenz-Mie calculation of OPC scattering (μg/m³),mass concentration of particles derived from Lorenz-Mie calculation of OPC scattering (μg/m³)
DateTimeUTC,F1_M11,P_M11,Q1_M11,Q2_M11,T1_M11,T2_M11,T3_M11,T4_M11,T5_M11,U1_M11,ZSPAN_M11,X0_M11,X2_M11,X1_M11
2024-02-12 00:00:00,SystemResetWarning,0828.6,5.00,000.00,018.5,018.0,000.0,026.9,020.0,13.4,0000.0,0012.33,0006.49,0006.15
2024-02-12 00:01:00,SystemResetWarning,0828.6,5.01,000.00,018.5,018.0,000.0,026.9,020.0,13.3,0000.0,0012.68,0006.48,0006.14
2024-02-12 00:02:00,SystemResetWarning,0828.5,5.00,000.00,018.5,018.0,000.0,026.9,020.0,13.5,0000.0,0013.06,0006.48,0006.12
2024-02-12 00:03:00,SystemResetWarning,0828.6,5.00,000.00,018.5,018.0,000.0,026.9,020.0,13.6,0000.0,0014.08,0006.48,0006.11
2024-02-12 00:04:00,SystemResetWarning,0828.6,5.00,000.00,018.5,018.0,000.0,026.9,020.0,13.7,0000.9,0013.63,0006.46,0006.10
2024-02-12 00:05:00,SystemResetWarning,0828.6,5.00,000.00,018.5,018.0,000.0,026.9,020.0,13.6,0000.0,0013.32,0006.45,0006.10
2024-02-12 00:06:00,SystemResetWarning,0828.5,5.00,000.00,018.5,018.0,000.0,026.9,020.0,13.5,0000.3,0013.10,0006.44,0006.11
2024-02-12 00:07:00,SystemResetWarning,0828.6,5.00,000.00,018.5,018.0,000.0,026.9,020.0,13.4,0002.2,0013.69,0006.46,0006.11
2024-02-12 00:08:00,SystemResetWarning,0828.6,4.99,000.00,018.5,018.0,000.0,027.0,020.0,13.5,0002.1,0013.23,0006.45,0006.12
2024-02-12 00:09:00,SystemResetWarning,0828.6,5.00,000.00,018.5,018.0,000.0,026.9,020.0,13.3,0002.3,0013.37,0006.47,0006.12
2024-02-12 00:10:00,SystemResetWarning,0828.5,5.03,000.00,018.5,017.9,000.0,027.0,020.0,13.3,0002.7,0013.91,0006.44,0006.11
2024-02-12 00:11:00,SystemResetWarning,0828.6,4.99,000.00,018.5,017.9,000.0,027.0,020.0,13.3,0003.1,0013.47,0006.42,0006.11
2024-02-12 00:12:00,SystemResetWarning,0828.6,4.99,000.00,018.5,017.9,000.0,026.9,020.0,13.3,0003.3,0013.59,0006.41,0006.11
2024-02-12 00:13:00,SystemResetWarning,0828.6,5.00,000.00,018.5,017.9,000.0,026.9,020.0,13.2,0003.0,0013.30,0006.42,0006.11
2024-02-12 00:14:00,SystemResetWarning,0828.6,5.01,000.00,018.4,017.9,000.0,027.0,020.0,13.3,0002.0,0012.67,0006.44,0006.13
2024-02-12 00:15:00,SystemResetWarning,0828.6,5.00,000.00,018.5,017.9,000.0,027.0,020.0,13.3,0000.9,0012.12,0006.45,0006.14
2024-02-12 00:16:00,SystemResetWarning,0828.6,4.99,000.00,018.5,017.9,000.0,026.9,020.0,13.3,0000.8,0012.17,0006.45,0006.13
2024-02-12 00:17:00,SystemResetWarning,0828.6,5.00,000.00,018.5,017.9,000.0,026.9,020.0,13.3,0001.2,0012.12,0006.42,0006.11
2024-02-12 00:18:00,SystemResetWarning,0828.6,5.01,000.00,018.4,018.0,000.0,026.9,020.0,13.3,0002.2,0011.40,0006.37,0006.09
2024-02-12 00:19:00,SystemResetWarning,0828.6,5.00,000.00,018.5,018.0,000.0,026.9,020.0,13.3,0002.5,0010.95,0006.33,0006.07
2024-02-12 00:20:00,SystemResetWarning,0828.6,4.99,000.00,018.5,018.0,000.0,026.9,020.0,13.5,0002.2,0010.92,0006.34,0006.05
2024-02-12 00:21:00,SystemResetWarning,0828.6,4.99,000.00,018.4,018.0,000.0,026.9,020.1,13.5,0001.6,0010.17,0006.32,0006.04
2024-02-12 00:22:00,SystemResetWarning,0828.6,5.00,000.00,018.5,018.0,000.0,026.9,020.1,13.4,0001.5,0009.87,0006.31,0006.02
2024-02-12 00:23:00,SystemResetWarning,0828.6,5.01,000.00,018.5,018.0,000.0,026.9,020.1,13.4,0001.2,0010.00,0006.38,0006.03
2024-02-12 00:24:00,SystemResetWarning,0828.6,5.00,000.00,018.5,018.1,000.0,026.9,020.1,13.3,0001.0,0009.67,0006.37,0006.03
2024-02-12 00:25:00,SystemResetWarning,0828.6,4.99,000.00,018.5,018.1,000.0,026.9,020.1,13.3,0000.8,0009.44,0006.36,0006.03
2024-02-12 00:26:00,SystemResetWarning,0828.6,4.99,000.00,018.5,018.1,000.0,026.9,020.1,13.3,0000.9,0009.32,0006.34,0006.01
2024-02-12 00:27:00,SystemResetWarning,0828.6,5.00,000.00,018.5,018.1,000.0,026.9,020.1,13.3,0001.0,0009.49,0006.35,0006.01
2024-02-12 00:28:00,SystemResetWarning,0828.6,5.00,000.00,018.5,018.1,000.0,026.9,020.1,13.3,0000.7,0010.26,0006.37,0006.01
2024-02-12 00:29:00,SystemResetWarning,0828.6,5.00,000.00,018.5,018.1,000.0,026.9,020.1,13.3,0000.4,0010.33,0006.39,0006.02
2024-02-12 00:30:00,SystemResetWarning,0828.6,5.01,000.00,018.5,018.1,000.0,026.9,020.1,13.4,0000.4,0010.29,0006.39,0006.02
2024-02-12 00:31:00,SystemResetWarning,0828.6,5.00,000.00,018.5,018.1,000.0,026.9,020.1,13.5,0000.8,0010.20,0006.38,0006.02
2024-02-12 00:32:00,SystemResetWarning,0828.6,5.00,000.00,018.5,018.1,000.0,026.9,020.2,13.5,0000.8,0010.24,0006.41,0006.04
2024-02-12 00:33:00,SystemResetWarning,0828.6,5.00,000.00,018.5,018.1,000.0,026.9,020.2,13.6,0001.0,0010.36,0006.43,0006.06
2024-02-12 00:34:00,SystemResetWarning,0828.6,5.00,000.00,018.5,018.1,000.0,026.9,020.2,13.7,0001.6,0010.53,0006.40,0006.06
2024-02-12 00:35:00,SystemResetWarning,0828.6,5.00,000.00,018.5,018.1,000.0,026.9,020.2,13.7,0002.3,0010.60,0006.40,0006.07
2024-02-12 00:36:00,SystemResetWarning,0828.6,5.00,000.00,018.5,018.1,000.0,026.9,020.2,13.7,0002.7,0011.05,0006.41,0006.07
2024-02-12 00:37:00,SystemResetWarning,0828.6,4.99,000.00,018.5,018.1,000.0,026.9,020.2,13.6,0003.5,0011.35,0006.41,0006.06
2024-02-12 00:38:00,SystemResetWarning,0828.6,5.00,000.00,018.5,018.1,000.0,026.9,020.2,13.6,0003.1,0011.52,0006.42,0006.05
2024-02-12 00:39:00,SystemResetWarning,0828.7,5.00,000.00,018.5,018.1,000.0,026.9,020.2,13.7,0002.2,0010.77,0006.40,0006.06
2024-02-12 00:40:00,SystemResetWarning,0828.7,5.00,000.00,018.5,018.1,000.0,026.9,020.2,13.6,0001.9,0010.95,0006.41,0006.09
2024-02-12 00:41:00,SystemResetWarning,0828.7,5.00,000.00,018.5,018.1,000.0,026.9,020.2,13.3,0002.1,0011.30,0006.46,0006.12
2024-02-12 00:42:00,SystemResetWarning,0828.7,5.00,000.00,018.5,018.1,000.0,026.9,020.2,13.1,0002.0,0011.48,0006.47,0006.15
2024-02-12 00:43:00,SystemResetWarning,0828.7,5.01,000.00,018.5,018.2,000.0,026.9,020.3,13.1,0001.9,0011.48,0006.47,0006.16
2024-02-12 00:44:00,SystemResetWarning,0828.8,4.99,000.00,018.6,018.2,000.0,026.9,020.3,13.0,0002.0,0011.36,0006.47,0006.16
2024-02-12 00:45:00,SystemResetWarning,0828.8,5.00,000.00,018.6,018.2,000.0,026.9,020.3,13.1,0001.6,0010.98,0006.48,0006.15
2024-02-12 00:46:00,SystemResetWarning,0828.7,4.99,000.00,018.6,018.2,000.0,026.9,020.3,13.1,0001.3,0010.88,0006.46,0006.12
2024-02-12 00:47:00,SystemResetWarning,0828.8,5.00,000.00,018.6,018.2,000.0,026.9,020.2,13.1,0000.9,0010.62,0006.41,0006.09
2024-02-12 00:48:00,SystemResetWarning,0828.8,5.00,000.00,018.6,018.1,000.0,026.9,020.2,13.1,0000.0,0010.21,0006.38,0006.05
2024-02-12 00:49:00,SystemResetWarning,0828.8,5.01,000.00,018.6,018.1,000.0,026.9,020.2,13.1,0000.0,0009.95,0006.34,0006.01
2024-02-12 00:50:00,SystemResetWarning,0828.8,5.01,000.00,018.6,018.1,000.0,026.9,020.2,13.1,0000.0,0009.98,0006.36,0005.97
2024-02-12 00:51:00,SystemResetWarning,0828.8,5.01,000.00,018.6,018.2,000.0,026.9,020.2,13.0,0000.0,0010.07,0006.33,0005.92
2024-02-12 00:52:00,SystemResetWarning,0828.9,4.99,000.00,018.6,018.2,000.0,026.9,020.3,12.7,0000.5,0009.76,0006.25,0005.86
2024-02-12 00:53:00,SystemResetWarning,0828.9,5.00,000.00,018.6,018.2,000.0,026.9,020.3,12.5,0000.5,0009.51,0006.23,0005.81
2024-02-12 00:54:00,SystemResetWarning,0828.9,4.99,000.00,018.6,018.2,000.0,026.9,020.3,13.0,0001.0,0009.98,0006.21,0005.77
2024-02-12 00:55:00,SystemResetWarning,0828.9,4.99,000.00,018.6,018.2,000.0,027.0,020.3,13.2,0002.1,0010.54,0006.18,0005.73
2024-02-12 00:56:00,SystemResetWarning,0828.9,5.00,000.00,018.6,018.2,000.0,027.0,020.3,12.8,0002.0,0010.53,0006.13,0005.69
2024-02-12 00:57:00,SystemResetWarning,0828.8,5.01,000.00,018.6,018.2,000.0,027.0,020.3,12.5,0001.5,0010.55,0006.09,0005.66
2024-02-12 00:58:00,SystemResetWarning,0828.8,5.01,000.00,018.6,018.2,000.0,027.0,020.3,12.4,0000.3,0010.48,0006.04,0005.61
2024-02-12 00:59:00,SystemResetWarning,0828.9,5.00,000.00,018.6,018.2,000.0,027.0,020.3,12.2,0000.4,0010.36,0006.00,0005.57
